When you browse on this site, cookies collect data to enhance your experience and personalize the content and advertising you see.
Visit our Privacy Policy to learn more. By continuing to use the site, you agree to this use of cookies and data.
  • In Lithuania
  • List of Countries
  • For 7 days
  • Water Temperature
  • Satellite Maps
  • Weather Map
  • Weather Widgets
  • user-avatar
    Login

    Hourly Weather Rassvet

    Today, 21 March, Thursday

    Time Temperature Precipitation Wind Pressure Humidity
    00:00 +8°C° 0 mm 1 mps 758 mmHg 63%
    01:00 +7°C° 0 mm 1 mps 758 mmHg 64%
    02:00 +7°C° 0 mm 1 mps 757 mmHg 66%
    03:00 +6°C° 0 mm 1 mps 757 mmHg 68%
    04:00 +5°C° 0 mm 0 mps 757 mmHg 69%
    05:00 +5°C° 0 mm 0 mps 757 mmHg 70%
    06:00 +5°C° 0 mm 0 mps 757 mmHg 71%
    07:00 +6°C° 0 mm 0 mps 757 mmHg 67%
    08:00 +7°C° 0 mm 0 mps 757 mmHg 64%
    09:00 +9°C° 0 mm 1 mps 758 mmHg 60%
    10:00 +10°C° 0 mm 1 mps 758 mmHg 57%
    11:00 +10°C° 0 mm 2 mps 757 mmHg 55%
    12:00 +12°C° 0 mm 2 mps 757 mmHg 52%
    13:00 +11°C° 0 mm 3 mps 757 mmHg 54%
    14:00 +11°C° 0 mm 4 mps 757 mmHg 56%
    15:00 +11°C° 0 mm 4 mps 756 mmHg 59%
    16:00 +11°C° 0 mm 4 mps 756 mmHg 58%
    17:00 +10°C° 0 mm 4 mps 756 mmHg 57%
    18:00 +10°C° 0 mm 3 mps 756 mmHg 56%
    19:00 +9°C° 0 mm 3 mps 756 mmHg 55%
    20:00 +8°C° 0 mm 3 mps 756 mmHg 54%
    21:00 +8°C° 0 mm 2 mps 757 mmHg 53%
    22:00 +7°C° 0 mm 2 mps 756 mmHg 53%
    23:00 +7°C° 0 mm 2 mps 756 mmHg 54%

    Tomorrow, 22 March, Friday

    Time Temperature Precipitation Wind Pressure Humidity
    00:00 +7°C° 0 mm 3 mps 756 mmHg 55%
    01:00 +5°C° 0.1 mm 3 mps 756 mmHg 59%
    02:00 +5°C° 0.1 mm 3 mps 756 mmHg 64%
    03:00 +5°C° 0.1 mm 4 mps 756 mmHg 69%
    04:00 +4°C° 0 mm 4 mps 756 mmHg 72%
    05:00 +3°C° 0 mm 4 mps 756 mmHg 75%
    06:00 +1°C° 0 mm 4 mps 756 mmHg 78%
    07:00 +3°C° 0 mm 4 mps 756 mmHg 75%
    08:00 +4°C° 0 mm 4 mps 757 mmHg 72%
    09:00 +4°C° 0 mm 4 mps 757 mmHg 69%
    10:00 +5°C° 0 mm 4 mps 757 mmHg 63%
    11:00 +6°C° 0 mm 4 mps 757 mmHg 57%
    12:00 +7°C° 0 mm 4 mps 757 mmHg 51%
    13:00 +7°C° 0 mm 4 mps 756 mmHg 49%
    14:00 +8°C° 0 mm 4 mps 756 mmHg 48%
    15:00 +8°C° 0 mm 5 mps 755 mmHg 46%
    16:00 +8°C° 0 mm 5 mps 755 mmHg 47%
    17:00 +8°C° 0 mm 5 mps 754 mmHg 49%
    18:00 +8°C° 0 mm 5 mps 754 mmHg 50%
    19:00 +7°C° 0 mm 6 mps 753 mmHg 55%
    20:00 +5°C° 0 mm 7 mps 752 mmHg 60%
    21:00 +4°C° 0 mm 7 mps 752 mmHg 65%
    22:00 +4°C° 0.3 mm 8 mps 751 mmHg 69%
    23:00 +4°C° 0.3 mm 8 mps 750 mmHg 73%

    Day after tomorrow, 23 March, Saturday

    Time Temperature Precipitation Wind Pressure Humidity
    00:00 +3°C° 0.3 mm 9 mps 749 mmHg 77%
    01:00 +4°C° 0.3 mm 8 mps 749 mmHg 74%
    02:00 +4°C° 0.3 mm 7 mps 749 mmHg 70%
    03:00 +4°C° 0.3 mm 6 mps 749 mmHg 67%
    04:00 +2°C° 0 mm 6 mps 749 mmHg 66%
    05:00 +1°C° 0 mm 6 mps 749 mmHg 64%
    06:00 0°C° 0 mm 5 mps 750 mmHg 63%
    07:00 -1°C° 0 mm 6 mps 750 mmHg 60%
    08:00 +1°C° 0 mm 6 mps 750 mmHg 57%
    09:00 +1°C° 0 mm 6 mps 750 mmHg 54%
    10:00 +2°C° 0.2 mm 6 mps 750 mmHg 52%
    11:00 +2°C° 0.2 mm 6 mps 750 mmHg 49%
    12:00 +3°C° 0.2 mm 6 mps 750 mmHg 47%
    13:00 +3°C° 0.1 mm 6 mps 750 mmHg 46%
    14:00 +3°C° 0.1 mm 6 mps 750 mmHg 44%
    15:00 +4°C° 0.1 mm 6 mps 749 mmHg 43%
    16:00 +3°C° 0.1 mm 6 mps 750 mmHg 48%
    17:00 +3°C° 0.1 mm 6 mps 750 mmHg 53%
    18:00 +2°C° 0.1 mm 6 mps 750 mmHg 58%
    19:00 +2°C° 0.1 mm 5 mps 751 mmHg 63%
    20:00 +1°C° 0.1 mm 5 mps 751 mmHg 68%
    21:00 +1°C° 0.1 mm 5 mps 752 mmHg 73%
    22:00 +1°C° 0.1 mm 5 mps 752 mmHg 73%
    23:00 +1°C° 0.1 mm 5 mps 752 mmHg 74%

    24 March, Sunday

    Time Temperature Precipitation Wind Pressure Humidity
    00:00 +1°C° 0.1 mm 5 mps 752 mmHg 74%
    01:00 0°C° 0 mm 5 mps 752 mmHg 76%
    02:00 0°C° 0 mm 4 mps 753 mmHg 79%
    03:00 0°C° 0 mm 4 mps 753 mmHg 81%
    04:00 0°C° 0 mm 4 mps 753 mmHg 81%
    05:00 0°C° 0 mm 4 mps 754 mmHg 80%
    06:00 0°C° 0 mm 4 mps 754 mmHg 80%
    07:00 0°C° 0 mm 4 mps 754 mmHg 78%
    08:00 +1°C° 0 mm 4 mps 754 mmHg 75%
    09:00 +1°C° 0 mm 4 mps 755 mmHg 73%
    10:00 +3°C° 0 mm 4 mps 755 mmHg 69%
    11:00 +4°C° 0 mm 4 mps 755 mmHg 66%
    12:00 +4°C° 0 mm 4 mps 755 mmHg 63%
    13:00 +5°C° 0 mm 4 mps 754 mmHg 60%
    14:00 +5°C° 0 mm 5 mps 754 mmHg 57%
    15:00 +6°C° 0 mm 5 mps 754 mmHg 54%
    16:00 +6°C° 0 mm 5 mps 754 mmHg 55%
    17:00 +6°C° 0 mm 4 mps 754 mmHg 56%
    18:00 +6°C° 0 mm 4 mps 753 mmHg 57%
    19:00 +5°C° 0 mm 4 mps 753 mmHg 60%
    20:00 +5°C° 0 mm 4 mps 753 mmHg 64%
    21:00 +5°C° 0 mm 4 mps 753 mmHg 67%
    22:00 +3°C° 0 mm 5 mps 753 mmHg 68%
    23:00 +3°C° 0 mm 5 mps 753 mmHg 70%

    25 March, Monday

    Time Temperature Precipitation Wind Pressure Humidity
    00:00 +3°C° 0 mm 6 mps 753 mmHg 71%
    01:00 +3°C° 0 mm 5 mps 753 mmHg 74%
    02:00 +4°C° 0 mm 4 mps 753 mmHg 76%
    03:00 +4°C° 0 mm 4 mps 752 mmHg 79%
    04:00 +4°C° 0 mm 4 mps 753 mmHg 76%
    05:00 +3°C° 0 mm 3 mps 753 mmHg 74%
    06:00 +3°C° 0 mm 3 mps 753 mmHg 71%
    07:00 +3°C° 0 mm 4 mps 753 mmHg 64%
    08:00 +4°C° 0 mm 4 mps 753 mmHg 58%
    09:00 +4°C° 0 mm 4 mps 754 mmHg 51%
    10:00 +5°C° 0 mm 4 mps 754 mmHg 47%
    11:00 +6°C° 0 mm 4 mps 754 mmHg 43%
    12:00 +7°C° 0 mm 4 mps 754 mmHg 38%
    13:00 +8°C° 0 mm 4 mps 754 mmHg 37%
    14:00 +8°C° 0 mm 4 mps 754 mmHg 35%
    15:00 +10°C° 0 mm 4 mps 754 mmHg 33%
    16:00 +9°C° 0 mm 3 mps 754 mmHg 34%
    17:00 +9°C° 0 mm 2 mps 753 mmHg 36%
    18:00 +9°C° 0 mm 1 mps 753 mmHg 37%
    19:00 +9°C° 0 mm 1 mps 753 mmHg 40%
    20:00 +8°C° 0 mm 1 mps 753 mmHg 43%
    21:00 +7°C° 0 mm 1 mps 754 mmHg 45%
    22:00 +7°C° 0 mm 1 mps 753 mmHg 47%
    23:00 +6°C° 0 mm 2 mps 753 mmHg 49%

    26 March, Tuesday

    Time Temperature Precipitation Wind Pressure Humidity
    00:00 +5°C° 0 mm 2 mps 752 mmHg 50%
    01:00 +5°C° 0 mm 2 mps 752 mmHg 55%
    02:00 +4°C° 0 mm 3 mps 751 mmHg 59%
    03:00 +4°C° 0 mm 3 mps 751 mmHg 63%
    04:00 +4°C° 0.1 mm 3 mps 751 mmHg 69%
    05:00 +4°C° 0.1 mm 4 mps 750 mmHg 74%
    06:00 +4°C° 0.1 mm 4 mps 750 mmHg 79%
    07:00 +5°C° 0.3 mm 5 mps 750 mmHg 77%
    08:00 +4°C° 0.3 mm 6 mps 750 mmHg 76%
    09:00 +4°C° 0.3 mm 7 mps 749 mmHg 74%
    10:00 +5°C° 0 mm 7 mps 749 mmHg 69%
    11:00 +8°C° 0 mm 7 mps 749 mmHg 64%
    12:00 +9°C° 0 mm 7 mps 749 mmHg 59%
    13:00 +10°C° 0 mm 6 mps 748 mmHg 57%
    14:00 +11°C° 0 mm 6 mps 748 mmHg 54%
    15:00 +11°C° 0 mm 6 mps 748 mmHg 52%
    16:00 +12°C° 0 mm 5 mps 748 mmHg 54%
    17:00 +10°C° 0 mm 5 mps 748 mmHg 56%
    18:00 +10°C° 0 mm 4 mps 748 mmHg 58%
    19:00 +8°C° 0 mm 4 mps 748 mmHg 62%
    20:00 +9°C° 0 mm 3 mps 748 mmHg 66%
    21:00 +8°C° 0 mm 3 mps 748 mmHg 69%
    22:00 +8°C° 0 mm 2 mps 748 mmHg 72%
    23:00 +8°C° 0 mm 2 mps 748 mmHg 74%
    Show more